User: anonymous   Login
Location: Unspecified
(0.0000°N, 0.0000°E)
Time: 14:51:45
(UTC+00:00)
Language:

OPTUS 1C - Orbit

View from above orbital plane
View from above orbital plane
View from above satellite
View from above satellite

Ground track
Ground track

The orbit data is extracted from the following two-line orbital elements,

1 27831U 03028B   16144.58041230 -.00000146  00000-0  00000+0 0  9994
2 27831   0.0688 119.6568 0003066 323.1052 163.8172  1.00272038 47453
Epoch (UTC): 23 May 2016 13:55:47
Eccentricity: 0.0003066
inclination: 0.0688°
perigee height: 35773 km
apogee height: 35799 km
right ascension of ascending node: 119.6568°
argument of perigee: 323.1052°
revolutions per day: 1.00272038
mean anomaly at epoch: 163.8172°
orbit number at epoch: 4745

The dashed part of the orbit path shows where the satellite is in the earth's shadow,  

DLR